User: anonymous   Login
Location: Brachbach
(49.1847°N, 9.7240°E)
Time: 18:46:22
(UTC+00:00)
Language:

Meteor 2-5 Rocket - Orbit

View from above orbital plane
View from above orbital plane
View from above satellite
View from above satellite

Ground track
Ground track

The orbit data is extracted from the following two-line orbital elements,

1 11608U 79095B   24206.78635208  .00000126  00000-0  67451-4 0  9995
2 11608  81.2116 212.8174 0055529  73.7753 286.9515 14.06373884294487
Epoch (UTC): 24 July 2024 18:52:20
Eccentricity: 0.0055529
inclination: 81.2116°
perigee height: 831 km
apogee height: 912 km
right ascension of ascending node: 212.8174°
argument of perigee: 73.7753°
revolutions per day: 14.06373884
mean anomaly at epoch: 286.9515°
orbit number at epoch: 29448

The dashed part of the orbit path shows where the satellite is in the earth's shadow,  

DLR